Terminal Aerodrome Forecast
Issued by NWS Jackson, KY

Home | Current Version | Previous Version | Text Only | Print | Product List | Glossary On
Versions: 1 2 3 4 5 6 7 8 9 10 11 12
000
FTUS43 KJKL 181735
TAFJKL
TAF
KJKL 181735Z 1818/1918 28006KT P6SM SCT050
     FM182300 00000KT P6SM SKC
     FM191600 26004KT P6SM SCT030 SCT120=

USA.gov is the U.S. government's official web portal to all federal, state and local government web resources and services.